Location: Lafig�re
(44.4503°N, 4.0357°E)
Time: 21:15:00
(UTC+00:00)

Transit 4A - All Passes

Search period start: 21 January 2021 00:00
Search period end: 31 January 2021 00:00
Orbit: 864 x 980 km, 66.8° (Epoch: 20 January)

Date Brightness Start Highest point End Pass type
(mag) Time Alt. Az. Time Alt. Az. Time Alt. Az.
21 Jan - 02:05:28 10° N 02:09:22 17° NNE 02:13:12 10° ENE visible
21 Jan - 03:50:59 10° NNW 03:57:08 60° NE 04:03:03 10° SE visible
21 Jan - 05:38:07 10° NW 05:43:02 25° WSW 05:47:48 10° SSW visible
21 Jan - 18:58:47 10° SSW 19:05:02 58° ESE 19:11:18 10° NE visible
21 Jan - 20:46:05 10° WSW 20:51:46 33° NW 20:57:27 10° NNE visible
21 Jan - 22:38:18 10° NW 22:40:19 11° NNW 22:42:19 10° N night (unlit)
22 Jan - 02:14:31 10° NNW 02:19:09 21° NE 02:23:41 10° E visible
22 Jan - 04:00:16 10° NNW 04:06:31 83° ENE 04:12:31 10° SSE visible
22 Jan - 05:48:17 10° WNW 05:52:02 17° WSW 05:55:42 10° SW visible
22 Jan - 17:25:35 10° SE 17:28:53 15° ESE 17:32:09 10° ENE visible
22 Jan - 19:07:53 10° SSW 19:14:18 82° ESE 19:20:43 10° NNE visible
22 Jan - 20:56:14 10° W 21:01:25 25° NW 21:06:35 10° NNE visible
23 Jan - 00:39:33 10° N 00:40:05 10° NNE 00:40:36 10° NNE night (unlit)
23 Jan - 02:23:38 10° NNW 02:28:51 27° NE 02:33:56 10° E visible
23 Jan - 04:09:39 10° NW 04:15:48 70° WSW 04:21:44 10° SSE visible
23 Jan - 05:59:53 10° W 06:00:57 10° W 06:02:00 10° WSW visible
23 Jan - 17:33:09 10° SSE 17:37:52 22° ESE 17:42:35 10° ENE visible
23 Jan - 19:17:14 10° SW 19:23:38 73° NW 19:30:02 10° NNE visible
23 Jan - 21:06:37 10° W 21:11:09 20° NW 21:15:40 10° N visible
24 Jan - 00:47:47 10° N 00:50:04 12° NNE 00:52:19 10° NE night (unlit)
24 Jan - 02:32:47 10° NNW 02:38:28 36° NE 02:43:58 10° ESE visible
24 Jan - 04:19:08 10° NW 04:25:01 48° WSW 04:30:42 10° S visible
24 Jan - 17:41:23 10° S 17:46:56 32° ESE 17:52:29 10° NE visible
24 Jan - 19:26:49 10° SW 19:33:04 53° NW 19:39:18 10° NNE visible
24 Jan - 21:17:14 10° WNW 21:20:58 16° NNW 21:24:41 10° N visible
25 Jan - 00:56:40 10° N 00:59:59 14° NNE 01:03:15 10° ENE night (unlit)
25 Jan - 02:41:59 10° NNW 02:48:00 48° NE 02:53:48 10° SE visible
25 Jan - 04:28:46 10° NW 04:34:09 33° WSW 04:39:22 10° S visible
25 Jan - 17:50:01 10° S 17:56:04 46° ESE 18:02:07 10° NE visible
25 Jan - 19:36:37 10° WSW 19:42:35 39° NW 19:48:30 10° NNE visible
25 Jan - 21:28:06 10° NW 21:30:52 13° NNW 21:33:37 10° N visible
26 Jan - 01:05:40 10° N 01:09:49 18° NNE 01:13:53 10° ENE night (unlit)
26 Jan - 02:51:15 10° NNW 02:57:26 67° NE 03:03:23 10° SE visible
26 Jan - 04:38:39 10° WNW 04:43:11 22° WSW 04:47:37 10° SSW visible
26 Jan - 16:18:46 10° ESE 16:20:05 11° E 16:21:25 10° E daylight
26 Jan - 17:58:57 10° SSW 18:05:17 66° ESE 18:11:37 10° NE visible
26 Jan - 19:46:38 10° WSW 19:52:09 30° NW 19:57:40 10° NNE visible
26 Jan - 21:39:24 10° NNW 21:40:50 11° NNW 21:42:16 10° N visible
27 Jan - 01:14:44 10° NNW 01:19:35 23° NE 01:24:17 10° E night (unlit)
27 Jan - 03:00:34 10° NNW 03:06:47 87° WSW 03:12:46 10° SSE night (unlit)
27 Jan - 04:49:05 10° WNW 04:52:10 14° WSW 04:55:13 10° SW night (unlit)
27 Jan - 16:25:08 10° SE 16:29:02 17° ESE 16:32:56 10° ENE daylight
27 Jan - 18:08:09 10° SSW 18:14:35 88° WNW 18:21:00 10° NNE visible
27 Jan - 19:56:53 10° W 20:01:50 23° NW 20:06:46 10° NNE visible
27 Jan - 23:39:17 10° N 23:40:36 11° NNE 23:41:54 10° NNE night (unlit)
28 Jan - 01:23:51 10° NNW 01:29:15 30° NE 01:34:29 10° ESE night (unlit)
28 Jan - 03:09:58 10° NW 03:16:03 61° WSW 03:21:53 10° SSE night (unlit)
28 Jan - 16:32:59 10° SSE 16:38:03 25° ESE 16:43:07 10° NE daylight
28 Jan - 18:17:35 10° SW 18:23:57 65° NW 18:30:18 10° NNE visible
28 Jan - 20:07:21 10° WNW 20:11:36 18° NNW 20:15:50 10° N visible
28 Jan - 23:47:55 10° N 23:50:33 13° NNE 23:53:10 10° NE night (unlit)
29 Jan - 01:33:02 10° NNW 01:38:49 39° NE 01:44:25 10° ESE night (unlit)
29 Jan - 03:19:31 10° NW 03:25:13 41° WSW 03:30:45 10° S night (unlit)
29 Jan - 16:41:23 10° S 16:47:08 37° ESE 16:52:54 10° NE daylight
29 Jan - 18:27:15 10° WSW 18:33:25 47° NW 18:39:32 10° NNE visible
29 Jan - 20:18:03 10° WNW 20:21:26 15° NNW 20:24:50 10° N visible
29 Jan - 23:56:50 10° N 00:00:27 16° NNE 00:04:00 10° ENE night (unlit)
30 Jan - 01:42:15 10° NNW 01:48:19 54° NE 01:54:10 10° SE night (unlit)
30 Jan - 03:29:13 10° NW 03:34:19 28° WSW 03:39:17 10° SSW night (unlit)
30 Jan - 16:50:08 10° S 16:56:19 53° ESE 17:02:29 10° NE daylight
30 Jan - 18:37:08 10° WSW 18:42:56 35° NW 18:48:43 10° NNE visible
30 Jan - 20:29:03 10° NW 20:31:22 12° NNW 20:33:41 10° N visible
